owner,sensor,date,latitude,longitude,vertical_datum,wind_speed,wind_to_direction,wind_speed_of_gust,qcFlag 
TCOON,ioos:station:TCOON:006:1,2012-05-01T00:00:00Z,27.8217,-97.2040,0.0,3.1,98.0,7.4,'11111222,11111222,11111222' 
TCOON,ioos:station:TCOON:006:1,2012-05-01T01:00:00Z,27.8217,-97.2040,0.0,4.3,105.0,8.1,'11111222,11111222,11111222' 
TCOON,ioos:station:TCOON:006:1,2012-05-01T02:00:00Z,27.8217,-97.2040,0.0,4.3,116.0,6.5,'11111222,11111222,11111222' 
TCOON,ioos:station:TCOON:006:1,2012-05-01T03:00:00Z,27.8217,-97.2040,0.0,4.3,113.0,6.0,'11111222,11111222,11111222' 
TCOON,ioos:station:TCOON:006:1,2012-05-01T04:00:00Z,27.8217,-97.2040,0.0,4.5,123.0,5.9,'11111222,11111222,11111222' 
TCOON,ioos:station:TCOON:006:1,2012-05-01T05:00:00Z,27.8217,-97.2040,0.0,3.7,124.0,6.3,'11111222,11111222,11111222' 
TCOON,ioos:station:TCOON:006:1,2012-05-01T06:00:00Z,27.8217,-97.2040,0.0,3.2,139.0,5.0,'11111222,11111222,11111222' 
TCOON,ioos:station:TCOON:006:1,2012-05-01T07:00:00Z,27.8217,-97.2040,0.0,3.6,145.0,5.4,'11111222,11111222,11111222' 
TCOON,ioos:station:TCOON:006:1,2012-05-01T08:00:00Z,27.8217,-97.2040,0.0,3.7,144.0,6.2,'11111222,11111222,11111222' 
TCOON,ioos:station:TCOON:006:1,2012-05-01T09:00:00Z,27.8217,-97.2040,0.0,7.4,113.0,10.5,'11111222,11111222,11111222' 
TCOON,ioos:station:TCOON:006:1,2012-05-01T10:00:00Z,27.8217,-97.2040,0.0,7.7,124.0,11.2,'11111222,11111222,11111222' 
TCOON,ioos:station:TCOON:006:1,2012-05-01T11:00:00Z,27.8217,-97.2040,0.0,4.7,135.0,7.0,'11111222,11111222,11111222' 
TCOON,ioos:station:TCOON:006:1,2012-05-01T12:00:00Z,27.8217,-97.2040,0.0,2.3,113.0,4.4,'11111222,11111222,11111222' 
TCOON,ioos:station:TCOON:006:1,2012-05-01T13:00:00Z,27.8217,-97.2040,0.0,3.1,112.0,5.3,'11111222,11111222,11111222' 
TCOON,ioos:station:TCOON:006:1,2012-05-01T14:00:00Z,27.8217,-97.2040,0.0,5.7,120.0,7.0,'11111222,11111222,11111222' 
TCOON,ioos:station:TCOON:006:1,2012-05-01T15:00:00Z,27.8217,-97.2040,0.0,4.7,124.0,6.5,'11111222,11111222,11111222' 
TCOON,ioos:station:TCOON:006:1,2012-05-01T16:00:00Z,27.8217,-97.2040,0.0,4.2,124.0,5.7,'11111222,11111222,11111222' 
TCOON,ioos:station:TCOON:006:1,2012-05-01T17:00:00Z,27.8217,-97.2040,0.0,4.2,120.0,6.2,'11111222,11111222,11111222' 
TCOON,ioos:station:TCOON:006:1,2012-05-01T18:00:00Z,27.8217,-97.2040,0.0,4.2,122.0,6.0,'11111222,11111222,11111222' 
TCOON,ioos:station:TCOON:006:1,2012-05-01T19:00:00Z,27.8217,-97.2040,0.0,4.1,112.0,5.4,'11111222,11111222,11111222' 
TCOON,ioos:station:TCOON:006:1,2012-05-01T20:00:00Z,27.8217,-97.2040,0.0,3.5,100.0,5.9,'11111222,11111222,11111222' 
TCOON,ioos:station:TCOON:006:1,2012-05-01T21:00:00Z,27.8217,-97.2040,0.0,3.4,84.0,6.1,'11111222,11111222,11111222' 
TCOON,ioos:station:TCOON:006:1,2012-05-01T22:00:00Z,27.8217,-97.2040,0.0,2.7,100.0,5.8,'11111222,11111222,11111222' 
TCOON,ioos:station:TCOON:006:1,2012-05-01T23:00:00Z,27.8217,-97.2040,0.0,4.2,97.0,7.8,'11111222,11111222,11111222' 
TCOON,ioos:station:TCOON:006:1,2012-05-02T00:00:00Z,27.8217,-97.2040,0.0,4.1,100.0,6.7,'11111222,11111222,11111222' 
TCOON,ioos:station:TCOON:006:1,2012-05-02T01:00:00Z,27.8217,-97.2040,0.0,2.5,98.0,6.4,'11111222,11111222,11111222' 
TCOON,ioos:station:TCOON:006:1,2012-05-02T02:00:00Z,27.8217,-97.2040,0.0,3.4,114.0,5.9,'11111222,11111222,11111222' 
TCOON,ioos:station:TCOON:006:1,2012-05-02T03:00:00Z,27.8217,-97.2040,0.0,4.0,115.0,5.8,'11111222,11111222,11111222' 
TCOON,ioos:station:TCOON:006:1,2012-05-02T04:00:00Z,27.8217,-97.2040,0.0,4.5,120.0,6.3,'11111222,11111222,11111222' 
TCOON,ioos:station:TCOON:006:1,2012-05-02T05:00:00Z,27.8217,-97.2040,0.0,4.2,119.0,6.6,'11111222,11111222,11111222' 
TCOON,ioos:station:TCOON:006:1,2012-05-02T06:00:00Z,27.8217,-97.2040,0.0,4.1,129.0,6.3,'11111222,11111222,11111222' 
TCOON,ioos:station:TCOON:006:1,2012-05-02T07:00:00Z,27.8217,-97.2040,0.0,4.7,129.0,7.0,'11111222,11111222,11111222' 
TCOON,ioos:station:TCOON:006:1,2012-05-02T08:00:00Z,27.8217,-97.2040,0.0,4.8,133.0,6.3,'11111222,11111222,11111222' 
TCOON,ioos:station:TCOON:006:1,2012-05-02T09:00:00Z,27.8217,-97.2040,0.0,2.7,140.0,5.3,'11111222,11111222,11111222' 
TCOON,ioos:station:TCOON:006:1,2012-05-02T10:00:00Z,27.8217,-97.2040,0.0,3.2,142.0,5.4,'11111222,11111222,11111222' 
TCOON,ioos:station:TCOON:006:1,2012-05-02T11:00:00Z,27.8217,-97.2040,0.0,3.1,137.0,4.5,'11111222,11111222,11111222' 
TCOON,ioos:station:TCOON:006:1,2012-05-02T12:00:00Z,27.8217,-97.2040,0.0,3.0,133.0,4.2,'11111222,11111222,11111222' 
TCOON,ioos:station:TCOON:006:1,2012-05-02T13:00:00Z,27.8217,-97.2040,0.0,3.0,138.0,5.2,'11111222,11111222,11111222' 
TCOON,ioos:station:TCOON:006:1,2012-05-02T14:00:00Z,27.8217,-97.2040,0.0,3.3,149.0,5.0,'11111222,11111222,11111222' 
TCOON,ioos:station:TCOON:006:1,2012-05-02T15:00:00Z,27.8217,-97.2040,0.0,3.7,146.0,5.0,'11111222,11111222,11111222' 
TCOON,ioos:station:TCOON:006:1,2012-05-02T16:00:00Z,27.8217,-97.2040,0.0,3.3,137.0,5.3,'11111222,11111222,11111222' 
TCOON,ioos:station:TCOON:006:1,2012-05-02T17:00:00Z,27.8217,-97.2040,0.0,4.2,132.0,5.6,'11111222,11111222,11111222' 
TCOON,ioos:station:TCOON:006:1,2012-05-02T18:00:00Z,27.8217,-97.2040,0.0,3.8,137.0,5.1,'11111222,11111222,11111222' 
TCOON,ioos:station:TCOON:006:1,2012-05-02T19:00:00Z,27.8217,-97.2040,0.0,3.7,123.0,5.5,'11111222,11111222,11111222' 
TCOON,ioos:station:TCOON:006:1,2012-05-02T20:00:00Z,27.8217,-97.2040,0.0,4.0,121.0,5.4,'11111222,11111222,11111222' 
TCOON,ioos:station:TCOON:006:1,2012-05-02T21:00:00Z,27.8217,-97.2040,0.0,4.0,109.0,6.4,'11111222,11111222,11111222' 
TCOON,ioos:station:TCOON:006:1,2012-05-02T22:00:00Z,27.8217,-97.2040,0.0,3.2,109.0,5.4,'11111222,11111222,11111222' 
TCOON,ioos:station:TCOON:006:1,2012-05-02T23:00:00Z,27.8217,-97.2040,0.0,3.3,108.0,6.6,'11111222,11111222,11111222' 
TCOON,ioos:station:TCOON:006:1,2012-05-03T00:00:00Z,27.8217,-97.2040,0.0,4.8,115.0,7.3,'11111222,11111222,11111222' 
TCOON,ioos:station:TCOON:006:1,2012-05-03T01:00:00Z,27.8217,-97.2040,0.0,4.1,108.0,6.2,'11111222,11111222,11111222' 
TCOON,ioos:station:TCOON:006:1,2012-05-03T02:00:00Z,27.8217,-97.2040,0.0,4.7,117.0,6.1,'11111222,11111222,11111222' 
TCOON,ioos:station:TCOON:006:1,2012-05-03T03:00:00Z,27.8217,-97.2040,0.0,3.9,117.0,6.6,'11111222,11111222,11111222' 
TCOON,ioos:station:TCOON:006:1,2012-05-03T04:00:00Z,27.8217,-97.2040,0.0,4.6,136.0,7.5,'11111222,11111222,11111222' 
TCOON,ioos:station:TCOON:006:1,2012-05-03T05:00:00Z,27.8217,-97.2040,0.0,5.7,124.0,7.3,'11111222,11111222,11111222' 
TCOON,ioos:station:TCOON:006:1,2012-05-03T06:00:00Z,27.8217,-97.2040,0.0,5.1,126.0,6.5,'11111222,11111222,11111222' 
TCOON,ioos:station:TCOON:006:1,2012-05-03T07:00:00Z,27.8217,-97.2040,0.0,3.5,141.0,5.4,'11111222,11111222,11111222' 
TCOON,ioos:station:TCOON:006:1,2012-05-03T08:00:00Z,27.8217,-97.2040,0.0,3.9,147.0,5.4,'11111222,11111222,11111222' 
TCOON,ioos:station:TCOON:006:1,2012-05-03T09:00:00Z,27.8217,-97.2040,0.0,3.5,135.0,4.7,'11111222,11111222,11111222' 
TCOON,ioos:station:TCOON:006:1,2012-05-03T10:00:00Z,27.8217,-97.2040,0.0,4.5,145.0,6.2,'11111222,11111222,11111222' 
TCOON,ioos:station:TCOON:006:1,2012-05-03T11:00:00Z,27.8217,-97.2040,0.0,4.6,149.0,5.7,'11111222,11111222,11111222' 
TCOON,ioos:station:TCOON:006:1,2012-05-03T12:00:00Z,27.8217,-97.2040,0.0,3.9,157.0,5.4,'11111222,11111222,11111222' 
TCOON,ioos:station:TCOON:006:1,2012-05-03T13:00:00Z,27.8217,-97.2040,0.0,3.8,141.0,5.8,'11111222,11111222,11111222' 
TCOON,ioos:station:TCOON:006:1,2012-05-03T14:00:00Z,27.8217,-97.2040,0.0,3.1,160.0,,'1111122,1111122,1111122' 
TCOON,ioos:station:TCOON:006:1,2012-05-03T15:00:00Z,27.8217,-97.2040,0.0,3.1,157.0,4.6,'11111222,11111222,11111222' 
TCOON,ioos:station:TCOON:006:1,2012-05-03T16:00:00Z,27.8217,-97.2040,0.0,3.1,147.0,4.7,'11111222,11111222,11111222' 
TCOON,ioos:station:TCOON:006:1,2012-05-03T17:00:00Z,27.8217,-97.2040,0.0,4.5,132.0,6.3,'11111222,11111222,11111222' 
TCOON,ioos:station:TCOON:006:1,2012-05-03T18:00:00Z,27.8217,-97.2040,0.0,4.6,113.0,6.6,'11111222,11111222,11111222' 
TCOON,ioos:station:TCOON:006:1,2012-05-03T19:00:00Z,27.8217,-97.2040,0.0,4.3,114.0,6.4,'11111222,11111222,11111222' 
TCOON,ioos:station:TCOON:006:1,2012-05-03T20:00:00Z,27.8217,-97.2040,0.0,4.5,120.0,7.2,'11111222,11111222,11111222' 
TCOON,ioos:station:TCOON:006:1,2012-05-03T21:00:00Z,27.8217,-97.2040,0.0,4.1,114.0,6.7,'11111222,11111222,11111222' 
TCOON,ioos:station:TCOON:006:1,2012-05-03T22:00:00Z,27.8217,-97.2040,0.0,2.8,103.0,7.1,'11111222,11111222,11111222' 
TCOON,ioos:station:TCOON:006:1,2012-05-03T23:00:00Z,27.8217,-97.2040,0.0,3.5,113.0,6.0,'11111222,11111222,11111222' 
TCOON,ioos:station:TCOON:006:1,2012-05-04T00:00:00Z,27.8217,-97.2040,0.0,2.7,105.0,5.6,'11111222,11111222,11111222' 
TCOON,ioos:station:TCOON:006:1,2012-05-04T01:00:00Z,27.8217,-97.2040,0.0,3.0,104.0,5.5,'11111222,11111222,11111222' 
TCOON,ioos:station:TCOON:006:1,2012-05-04T02:00:00Z,27.8217,-97.2040,0.0,3.7,110.0,6.2,'11111222,11111222,11111222' 
TCOON,ioos:station:TCOON:006:1,2012-05-04T03:00:00Z,27.8217,-97.2040,0.0,3.4,114.0,5.3,'11111222,11111222,11111222' 
TCOON,ioos:station:TCOON:006:1,2012-05-04T04:00:00Z,27.8217,-97.2040,0.0,4.1,115.0,5.7,'11111222,11111222,11111222' 
TCOON,ioos:station:TCOON:006:1,2012-05-04T05:00:00Z,27.8217,-97.2040,0.0,2.8,113.0,4.4,'11111222,11111222,11111222' 
TCOON,ioos:station:TCOON:006:1,2012-05-04T06:00:00Z,27.8217,-97.2040,0.0,3.2,104.0,5.3,'11111222,11111222,11111222' 
TCOON,ioos:station:TCOON:006:1,2012-05-04T07:00:00Z,27.8217,-97.2040,0.0,2.2,99.0,5.5,'11111222,11111222,11111222' 
TCOON,ioos:station:TCOON:006:1,2012-05-04T08:00:00Z,27.8217,-97.2040,0.0,3.0,111.0,5.3,'11111222,11111222,11111222' 
TCOON,ioos:station:TCOON:006:1,2012-05-04T09:00:00Z,27.8217,-97.2040,0.0,2.3,121.0,3.6,'11111222,11111222,11111222' 
TCOON,ioos:station:TCOON:006:1,2012-05-04T10:00:00Z,27.8217,-97.2040,0.0,2.8,141.0,4.3,'11111222,11111222,11111222' 
TCOON,ioos:station:TCOON:006:1,2012-05-04T11:00:00Z,27.8217,-97.2040,0.0,3.0,133.0,5.3,'11111222,11111222,11111222' 
TCOON,ioos:station:TCOON:006:1,2012-05-04T12:00:00Z,27.8217,-97.2040,0.0,4.4,144.0,6.1,'11111222,11111222,11111222' 
TCOON,ioos:station:TCOON:006:1,2012-05-04T13:00:00Z,27.8217,-97.2040,0.0,4.4,141.0,6.3,'11111222,11111222,11111222' 
TCOON,ioos:station:TCOON:006:1,2012-05-04T14:00:00Z,27.8217,-97.2040,0.0,4.0,144.0,6.1,'11111222,11111222,11111222' 
TCOON,ioos:station:TCOON:006:1,2012-05-04T15:00:00Z,27.8217,-97.2040,0.0,5.2,164.0,7.0,'11111222,11111222,11111222' 
TCOON,ioos:station:TCOON:006:1,2012-05-04T16:00:00Z,27.8217,-97.2040,0.0,5.6,157.0,8.3,'11111222,11111222,11111222' 
TCOON,ioos:station:TCOON:006:1,2012-05-04T17:00:00Z,27.8217,-97.2040,0.0,4.7,145.0,6.5,'11111222,11111222,11111222' 
TCOON,ioos:station:TCOON:006:1,2012-05-04T18:00:00Z,27.8217,-97.2040,0.0,4.4,151.0,6.6,'11111222,11111222,11111222' 
TCOON,ioos:station:TCOON:006:1,2012-05-04T19:00:00Z,27.8217,-97.2040,0.0,5.7,127.0,6.9,'11111222,11111222,11111222' 
TCOON,ioos:station:TCOON:006:1,2012-05-04T20:00:00Z,27.8217,-97.2040,0.0,5.1,125.0,6.6,'11111222,11111222,11111222' 
TCOON,ioos:station:TCOON:006:1,2012-05-04T21:00:00Z,27.8217,-97.2040,0.0,5.2,115.0,7.1,'11111222,11111222,11111222' 
TCOON,ioos:station:TCOON:006:1,2012-05-04T22:00:00Z,27.8217,-97.2040,0.0,4.1,108.0,6.7,'11111222,11111222,11111222' 
TCOON,ioos:station:TCOON:006:1,2012-05-04T23:00:00Z,27.8217,-97.2040,0.0,4.4,107.0,6.7,'11111222,11111222,11111222' 
TCOON,ioos:station:TCOON:006:1,2012-05-05T00:00:00Z,27.8217,-97.2040,0.0,3.0,101.0,7.1,'11111222,11111222,11111222' 
TCOON,ioos:station:TCOON:006:1,2012-05-05T01:00:00Z,27.8217,-97.2040,0.0,4.7,120.0,8.1,'11111222,11111222,11111222' 
TCOON,ioos:station:TCOON:006:1,2012-05-05T02:00:00Z,27.8217,-97.2040,0.0,4.4,125.0,6.3,'11111222,11111222,11111222' 
TCOON,ioos:station:TCOON:006:1,2012-05-05T03:00:00Z,27.8217,-97.2040,0.0,4.5,137.0,6.5,'11111222,11111222,11111222' 
TCOON,ioos:station:TCOON:006:1,2012-05-05T04:00:00Z,27.8217,-97.2040,0.0,4.3,140.0,6.2,'11111222,11111222,11111222' 
TCOON,ioos:station:TCOON:006:1,2012-05-05T05:00:00Z,27.8217,-97.2040,0.0,3.2,138.0,6.0,'11111222,11111222,11111222' 
TCOON,ioos:station:TCOON:006:1,2012-05-05T06:00:00Z,27.8217,-97.2040,0.0,3.1,131.0,5.0,'11111222,11111222,11111222' 
TCOON,ioos:station:TCOON:006:1,2012-05-05T07:00:00Z,27.8217,-97.2040,0.0,4.2,134.0,6.7,'11111222,11111222,11111222' 
TCOON,ioos:station:TCOON:006:1,2012-05-05T08:00:00Z,27.8217,-97.2040,0.0,4.4,129.0,6.1,'11111222,11111222,11111222' 
TCOON,ioos:station:TCOON:006:1,2012-05-05T09:00:00Z,27.8217,-97.2040,0.0,4.3,129.0,6.3,'11111222,11111222,11111222' 
TCOON,ioos:station:TCOON:006:1,2012-05-05T10:00:00Z,27.8217,-97.2040,0.0,4.5,122.0,6.2,'11111222,11111222,11111222' 
TCOON,ioos:station:TCOON:006:1,2012-05-05T11:00:00Z,27.8217,-97.2040,0.0,4.8,126.0,6.5,'11111222,11111222,11111222' 
TCOON,ioos:station:TCOON:006:1,2012-05-05T12:00:00Z,27.8217,-97.2040,0.0,4.7,125.0,6.6,'11111222,11111222,11111222' 
TCOON,ioos:station:TCOON:006:1,2012-05-05T13:00:00Z,27.8217,-97.2040,0.0,4.8,145.0,7.0,'11111222,11111222,11111222' 
TCOON,ioos:station:TCOON:006:1,2012-05-05T14:00:00Z,27.8217,-97.2040,0.0,5.2,153.0,7.6,'11111222,11111222,11111222' 
TCOON,ioos:station:TCOON:006:1,2012-05-05T15:00:00Z,27.8217,-97.2040,0.0,5.6,147.0,7.3,'11111222,11111222,11111222' 
TCOON,ioos:station:TCOON:006:1,2012-05-05T16:00:00Z,27.8217,-97.2040,0.0,4.6,148.0,6.7,'11111222,11111222,11111222' 
TCOON,ioos:station:TCOON:006:1,2012-05-05T17:00:00Z,27.8217,-97.2040,0.0,5.7,151.0,9.5,'11111222,11111222,11111222' 
TCOON,ioos:station:TCOON:006:1,2012-05-05T18:00:00Z,27.8217,-97.2040,0.0,5.7,139.0,8.1,'11111222,11111222,11111222' 
TCOON,ioos:station:TCOON:006:1,2012-05-05T19:00:00Z,27.8217,-97.2040,0.0,6.9,135.0,9.4,'11111222,11111222,11111222' 
TCOON,ioos:station:TCOON:006:1,2012-05-05T20:00:00Z,27.8217,-97.2040,0.0,7.2,127.0,10.3,'11111222,11111222,11111222' 
TCOON,ioos:station:TCOON:006:1,2012-05-05T21:00:00Z,27.8217,-97.2040,0.0,6.6,135.0,10.3,'11111222,11111222,11111222' 
TCOON,ioos:station:TCOON:006:1,2012-05-05T22:00:00Z,27.8217,-97.2040,0.0,7.3,130.0,10.0,'11111222,11111222,11111222' 
TCOON,ioos:station:TCOON:006:1,2012-05-05T23:00:00Z,27.8217,-97.2040,0.0,7.7,138.0,10.5,'11111222,11111222,11111222' 
TCOON,ioos:station:TCOON:006:1,2012-05-06T00:00:00Z,27.8217,-97.2040,0.0,6.8,139.0,10.3,'11111222,11111222,11111222' 
TCOON,ioos:station:TCOON:006:1,2012-05-06T01:00:00Z,27.8217,-97.2040,0.0,7.7,142.0,9.9,'11111222,11111222,11111222' 
TCOON,ioos:station:TCOON:006:1,2012-05-06T02:00:00Z,27.8217,-97.2040,0.0,6.6,149.0,10.2,'11111222,11111222,11111222' 
TCOON,ioos:station:TCOON:006:1,2012-05-06T03:00:00Z,27.8217,-97.2040,0.0,6.1,138.0,8.6,'11111222,11111222,11111222' 
TCOON,ioos:station:TCOON:006:1,2012-05-06T04:00:00Z,27.8217,-97.2040,0.0,6.3,150.0,8.7,'11111222,11111222,11111222' 
TCOON,ioos:station:TCOON:006:1,2012-05-06T05:00:00Z,27.8217,-97.2040,0.0,6.7,146.0,8.8,'11111222,11111222,11111222' 
TCOON,ioos:station:TCOON:006:1,2012-05-06T06:00:00Z,27.8217,-97.2040,0.0,6.5,164.0,10.2,'11111222,11111222,11111222' 
TCOON,ioos:station:TCOON:006:1,2012-05-06T07:00:00Z,27.8217,-97.2040,0.0,5.9,148.0,9.9,'11111222,11111222,11111222' 
TCOON,ioos:station:TCOON:006:1,2012-05-06T08:00:00Z,27.8217,-97.2040,0.0,5.8,150.0,8.1,'11111222,11111222,11111222' 
TCOON,ioos:station:TCOON:006:1,2012-05-06T09:00:00Z,27.8217,-97.2040,0.0,6.5,155.0,8.1,'11111222,11111222,11111222' 
TCOON,ioos:station:TCOON:006:1,2012-05-06T10:00:00Z,27.8217,-97.2040,0.0,4.2,133.0,6.3,'11111222,11111222,11111222' 
TCOON,ioos:station:TCOON:006:1,2012-05-06T11:00:00Z,27.8217,-97.2040,0.0,2.9,76.0,4.7,'11111222,11111222,11111222' 
TCOON,ioos:station:TCOON:006:1,2012-05-06T12:00:00Z,27.8217,-97.2040,0.0,2.6,32.0,4.9,'11111222,11111222,11111222' 
TCOON,ioos:station:TCOON:006:1,2012-05-06T13:00:00Z,27.8217,-97.2040,0.0,2.3,21.0,5.4,'11111222,11111222,11111222' 
TCOON,ioos:station:TCOON:006:1,2012-05-06T14:00:00Z,27.8217,-97.2040,0.0,3.6,56.0,5.4,'11111222,11111222,11111222' 
TCOON,ioos:station:TCOON:006:1,2012-05-06T15:00:00Z,27.8217,-97.2040,0.0,4.0,64.0,6.1,'11111222,11111222,11111222' 
TCOON,ioos:station:TCOON:006:1,2012-05-06T16:00:00Z,27.8217,-97.2040,0.0,4.4,73.0,6.3,'11111222,11111222,11111222' 
TCOON,ioos:station:TCOON:006:1,2012-05-06T17:00:00Z,27.8217,-97.2040,0.0,3.9,102.0,6.2,'11111222,11111222,11111222' 
TCOON,ioos:station:TCOON:006:1,2012-05-06T18:00:00Z,27.8217,-97.2040,0.0,4.2,129.0,7.3,'11111222,11111222,11111222' 
TCOON,ioos:station:TCOON:006:1,2012-05-06T19:00:00Z,27.8217,-97.2040,0.0,5.4,133.0,7.9,'11111222,11111222,11111222' 
TCOON,ioos:station:TCOON:006:1,2012-05-06T20:00:00Z,27.8217,-97.2040,0.0,5.3,129.0,8.1,'11111222,11111222,11111222' 
TCOON,ioos:station:TCOON:006:1,2012-05-06T21:00:00Z,27.8217,-97.2040,0.0,4.6,132.0,7.4,'11111222,11111222,11111222' 
TCOON,ioos:station:TCOON:006:1,2012-05-06T22:00:00Z,27.8217,-97.2040,0.0,4.8,129.0,6.6,'11111222,11111222,11111222' 
TCOON,ioos:station:TCOON:006:1,2012-05-06T23:00:00Z,27.8217,-97.2040,0.0,4.3,124.0,7.0,'11111222,11111222,11111222' 
TCOON,ioos:station:TCOON:006:1,2012-05-07T00:00:00Z,27.8217,-97.2040,0.0,4.7,125.0,7.1,'11111222,11111222,11111222' 
TCOON,ioos:station:TCOON:006:1,2012-05-07T01:00:00Z,27.8217,-97.2040,0.0,4.3,130.0,7.2,'11111222,11111222,11111222' 
TCOON,ioos:station:TCOON:006:1,2012-05-07T02:00:00Z,27.8217,-97.2040,0.0,4.2,137.0,5.8,'11111222,11111222,11111222' 
TCOON,ioos:station:TCOON:006:1,2012-05-07T03:00:00Z,27.8217,-97.2040,0.0,4.3,125.0,6.4,'11111222,11111222,11111222' 
TCOON,ioos:station:TCOON:006:1,2012-05-07T04:00:00Z,27.8217,-97.2040,0.0,4.0,137.0,5.3,'11111222,11111222,11111222' 
TCOON,ioos:station:TCOON:006:1,2012-05-07T05:00:00Z,27.8217,-97.2040,0.0,4.6,137.0,5.7,'11111222,11111222,11111222' 
TCOON,ioos:station:TCOON:006:1,2012-05-07T06:00:00Z,27.8217,-97.2040,0.0,5.2,147.0,7.2,'11111222,11111222,11111222' 
TCOON,ioos:station:TCOON:006:1,2012-05-07T07:00:00Z,27.8217,-97.2040,0.0,4.8,150.0,5.9,'11111222,11111222,11111222' 
TCOON,ioos:station:TCOON:006:1,2012-05-07T08:00:00Z,27.8217,-97.2040,0.0,4.1,147.0,6.0,'11111222,11111222,11111222' 
TCOON,ioos:station:TCOON:006:1,2012-05-07T09:00:00Z,27.8217,-97.2040,0.0,3.5,146.0,6.2,'11111222,11111222,11111222' 
TCOON,ioos:station:TCOON:006:1,2012-05-07T10:00:00Z,27.8217,-97.2040,0.0,3.5,143.0,5.3,'11111222,11111222,11111222' 
TCOON,ioos:station:TCOON:006:1,2012-05-07T11:00:00Z,27.8217,-97.2040,0.0,3.3,134.0,5.3,'11111222,11111222,11111222' 
TCOON,ioos:station:TCOON:006:1,2012-05-07T12:00:00Z,27.8217,-97.2040,0.0,3.6,134.0,5.2,'11111222,11111222,11111222' 
TCOON,ioos:station:TCOON:006:1,2012-05-07T13:00:00Z,27.8217,-97.2040,0.0,3.5,142.0,4.8,'11111222,11111222,11111222' 
TCOON,ioos:station:TCOON:006:1,2012-05-07T14:00:00Z,27.8217,-97.2040,0.0,3.1,147.0,4.8,'11111222,11111222,11111222' 
TCOON,ioos:station:TCOON:006:1,2012-05-07T17:00:00Z,27.8217,-97.2040,0.0,4.0,143.0,5.1,'11111222,11111222,11111222' 
TCOON,ioos:station:TCOON:006:1,2012-05-07T18:00:00Z,27.8217,-97.2040,0.0,4.0,131.0,5.4,'11111222,11111222,11111222' 
TCOON,ioos:station:TCOON:006:1,2012-05-07T19:00:00Z,27.8217,-97.2040,0.0,3.8,131.0,5.3,'11111222,11111222,11111222' 
TCOON,ioos:station:TCOON:006:1,2012-05-07T20:00:00Z,27.8217,-97.2040,0.0,4.5,121.0,6.2,'11111222,11111222,11111222' 
TCOON,ioos:station:TCOON:006:1,2012-05-07T21:00:00Z,27.8217,-97.2040,0.0,5.8,117.0,7.1,'11111222,11111222,11111222' 
TCOON,ioos:station:TCOON:006:1,2012-05-07T22:00:00Z,27.8217,-97.2040,0.0,5.1,118.0,6.9,'11111222,11111222,11111222' 
TCOON,ioos:station:TCOON:006:1,2012-05-07T23:00:00Z,27.8217,-97.2040,0.0,5.2,108.0,7.1,'11111222,11111222,11111222' 
TCOON,ioos:station:TCOON:006:1,2012-05-08T00:00:00Z,27.8217,-97.2040,0.0,5.0,119.0,7.3,'11111222,11111222,11111222' 
TCOON,ioos:station:TCOON:006:1,2012-05-08T01:00:00Z,27.8217,-97.2040,0.0,4.9,122.0,6.9,'11111222,11111222,11111222' 
TCOON,ioos:station:TCOON:006:1,2012-05-08T02:00:00Z,27.8217,-97.2040,0.0,5.6,135.0,7.2,'11111222,11111222,11111222' 
TCOON,ioos:station:TCOON:006:1,2012-05-08T03:00:00Z,27.8217,-97.2040,0.0,3.5,137.0,5.4,'11111222,11111222,11111222' 
TCOON,ioos:station:TCOON:006:1,2012-05-08T04:00:00Z,27.8217,-97.2040,0.0,2.7,115.0,3.2,'11111222,11111222,11111222' 
TCOON,ioos:station:TCOON:006:1,2012-05-08T05:00:00Z,27.8217,-97.2040,0.0,1.4,27.0,2.2,'11111222,11111222,11111222' 
TCOON,ioos:station:TCOON:006:1,2012-05-08T06:00:00Z,27.8217,-97.2040,0.0,2.1,58.0,3.1,'11111222,11111222,11111222' 
TCOON,ioos:station:TCOON:006:1,2012-05-08T07:00:00Z,27.8217,-97.2040,0.0,6.1,82.0,7.8,'11111222,11111222,11111222' 
TCOON,ioos:station:TCOON:006:1,2012-05-08T08:00:00Z,27.8217,-97.2040,0.0,3.8,70.0,6.0,'11111222,11111222,11111222' 
TCOON,ioos:station:TCOON:006:1,2012-05-08T09:00:00Z,27.8217,-97.2040,0.0,4.8,81.0,6.9,'11111222,11111222,11111222' 
TCOON,ioos:station:TCOON:006:1,2012-05-08T10:00:00Z,27.8217,-97.2040,0.0,4.2,89.0,6.4,'11111222,11111222,11111222' 
TCOON,ioos:station:TCOON:006:1,2012-05-08T11:00:00Z,27.8217,-97.2040,0.0,3.6,103.0,6.6,'11111222,11111222,11111222' 
TCOON,ioos:station:TCOON:006:1,2012-05-08T12:00:00Z,27.8217,-97.2040,0.0,2.0,75.0,3.6,'11111222,11111222,11111222' 
TCOON,ioos:station:TCOON:006:1,2012-05-08T13:00:00Z,27.8217,-97.2040,0.0,2.5,68.0,4.9,'11111222,11111222,11111222' 
TCOON,ioos:station:TCOON:006:1,2012-05-08T14:00:00Z,27.8217,-97.2040,0.0,3.9,40.0,7.5,'11111222,11111222,11111222' 
TCOON,ioos:station:TCOON:006:1,2012-05-08T15:00:00Z,27.8217,-97.2040,0.0,3.6,46.0,5.5,'11111222,11111222,11111222' 
TCOON,ioos:station:TCOON:006:1,2012-05-08T16:00:00Z,27.8217,-97.2040,0.0,3.9,43.0,6.6,'11111222,11111222,11111222' 
TCOON,ioos:station:TCOON:006:1,2012-05-08T17:00:00Z,27.8217,-97.2040,0.0,4.3,33.0,7.0,'11111222,11111222,11111222' 
TCOON,ioos:station:TCOON:006:1,2012-05-08T18:00:00Z,27.8217,-97.2040,0.0,2.7,23.0,4.1,'11111222,11111222,11111222' 
TCOON,ioos:station:TCOON:006:1,2012-05-08T19:00:00Z,27.8217,-97.2040,0.0,1.4,355.0,5.5,'11111222,11111222,11111222' 
TCOON,ioos:station:TCOON:006:1,2012-05-08T20:00:00Z,27.8217,-97.2040,0.0,2.9,6.0,6.4,'11111222,11111222,11111222' 
TCOON,ioos:station:TCOON:006:1,2012-05-08T21:00:00Z,27.8217,-97.2040,0.0,4.3,26.0,8.2,'11111222,11111222,11111222' 
TCOON,ioos:station:TCOON:006:1,2012-05-08T22:00:00Z,27.8217,-97.2040,0.0,3.5,24.0,5.4,'11111222,11111222,11111222' 
TCOON,ioos:station:TCOON:006:1,2012-05-08T23:00:00Z,27.8217,-97.2040,0.0,4.7,43.0,7.8,'11111222,11111222,11111222' 
TCOON,ioos:station:TCOON:006:1,2012-05-09T00:00:00Z,27.8217,-97.2040,0.0,5.9,41.0,9.4,'11111222,11111222,11111222' 
TCOON,ioos:station:TCOON:006:1,2012-05-09T01:00:00Z,27.8217,-97.2040,0.0,6.8,46.0,10.0,'11111222,11111222,11111222' 
TCOON,ioos:station:TCOON:006:1,2012-05-09T02:00:00Z,27.8217,-97.2040,0.0,4.1,43.0,5.6,'11111222,11111222,11111222' 
TCOON,ioos:station:TCOON:006:1,2012-05-09T03:00:00Z,27.8217,-97.2040,0.0,1.2,349.0,2.6,'11111222,11111222,11111222' 
TCOON,ioos:station:TCOON:006:1,2012-05-09T04:00:00Z,27.8217,-97.2040,0.0,3.0,333.0,5.6,'11111222,11111222,11111222' 
TCOON,ioos:station:TCOON:006:1,2012-05-09T05:00:00Z,27.8217,-97.2040,0.0,2.1,7.0,3.4,'11111222,11111222,11111222' 
TCOON,ioos:station:TCOON:006:1,2012-05-09T06:00:00Z,27.8217,-97.2040,0.0,2.9,29.0,5.2,'11111222,11111222,11111222' 
TCOON,ioos:station:TCOON:006:1,2012-05-09T07:00:00Z,27.8217,-97.2040,0.0,1.6,15.0,3.1,'11111222,11111222,11111222' 
TCOON,ioos:station:TCOON:006:1,2012-05-09T08:00:00Z,27.8217,-97.2040,0.0,1.8,357.0,4.3,'11111222,11111222,11111222' 
TCOON,ioos:station:TCOON:006:1,2012-05-09T09:00:00Z,27.8217,-97.2040,0.0,2.8,336.0,4.9,'11111222,11111222,11111222' 
TCOON,ioos:station:TCOON:006:1,2012-05-09T10:00:00Z,27.8217,-97.2040,0.0,2.9,16.0,4.2,'11111222,11111222,11111222' 
TCOON,ioos:station:TCOON:006:1,2012-05-09T11:00:00Z,27.8217,-97.2040,0.0,3.2,24.0,5.8,'11111222,11111222,11111222' 
TCOON,ioos:station:TCOON:006:1,2012-05-09T12:00:00Z,27.8217,-97.2040,0.0,2.5,18.0,5.5,'11111222,11111222,11111222' 
TCOON,ioos:station:TCOON:006:1,2012-05-09T13:00:00Z,27.8217,-97.2040,0.0,2.8,28.0,4.6,'11111222,11111222,11111222' 